Date String (YYYY-MM-DD hh:mm:ss) UTC,Instrument flags,absolute air pressure of the measurement (hPa),sample flow rate (lpm),inlet stack bypass flow (lpm),air temperature of the measurement (°C),ambient temperature measured by the external sensor (°C),aerosol sample conditioner tube jacket temperature (°C),OPC LED temperature (°C),internal box temperature (°C),relative humidity of the measurement (%),span deviation,mass concentration of particles derived from Lorenz-Mie calculation of OPC scattering (μg/m³),mass concentration of particles derived from Lorenz-Mie calculation of OPC scattering (μg/m³),mass concentration of particles derived from Lorenz-Mie calculation of OPC scattering (μg/m³)
DateTimeUTC,F1_M11,P_M11,Q1_M11,Q2_M11,T1_M11,T2_M11,T3_M11,T4_M11,T5_M11,U1_M11,ZSPAN_M11,X0_M11,X2_M11,X1_M11
2023-06-16 21:00:00,SystemResetWarning,0833.7,5.00,000.00,030.4,028.9,000.0,038.9,032.0,30.0,0000.0,0004.86,0002.89,0002.40
2023-06-16 21:01:00,SystemResetWarning,0833.7,5.00,000.00,030.4,028.9,000.0,038.9,032.0,29.7,0000.0,0004.85,0002.85,0002.36
2023-06-16 21:02:00,SystemResetWarning,0833.7,5.01,000.00,030.5,028.9,000.0,039.0,032.0,29.3,0000.0,0004.67,0002.75,0002.30
2023-06-16 21:03:00,SystemResetWarning,0833.7,5.00,000.00,030.5,028.9,000.0,039.0,032.0,28.8,0000.0,0004.63,0002.69,0002.24
2023-06-16 21:04:00,SystemResetWarning,0833.7,5.00,000.00,030.5,029.0,000.0,039.0,032.0,28.7,0000.0,0004.38,0002.60,0002.19
2023-06-16 21:05:00,SystemResetWarning,0833.7,5.01,000.00,030.5,029.0,000.0,039.0,032.0,28.8,0000.0,0004.46,0002.54,0002.11
2023-06-16 21:06:00,SystemResetWarning,0833.7,5.00,000.00,030.5,029.0,000.0,039.0,032.0,28.8,0000.0,0004.75,0002.44,0002.04
2023-06-16 21:07:00,SystemResetWarning,0833.7,5.00,000.00,030.5,029.0,000.0,039.0,032.0,28.8,0000.0,0004.50,0002.33,0001.98
2023-06-16 21:08:00,SystemResetWarning,0833.7,5.00,000.00,030.5,029.0,000.0,039.0,032.1,28.9,0000.0,0004.32,0002.26,0001.92
2023-06-16 21:09:00,SystemResetWarning,0833.7,5.00,000.00,030.5,029.0,000.0,039.1,032.1,29.1,0000.0,0004.20,0002.16,0001.85
2023-06-16 21:10:00,SystemResetWarning,0833.7,5.00,000.00,030.5,029.0,000.0,039.1,032.1,29.2,0000.0,0004.05,0002.08,0001.78
2023-06-16 21:11:00,SystemResetWarning,0833.7,4.99,000.00,030.5,027.9,000.0,039.0,032.0,29.1,0000.0,0003.36,0002.00,0001.73
2023-06-16 21:12:00,SystemResetWarning,0833.6,5.00,000.00,030.5,025.6,000.0,039.0,031.9,28.9,0000.0,0003.35,0001.97,0001.71
2023-06-16 21:13:00,SystemResetWarning,0833.6,5.00,000.00,030.5,024.8,000.0,038.9,031.8,29.0,0000.0,0003.31,0001.96,0001.70
2023-06-16 21:14:00,SystemResetWarning,0833.6,5.02,000.00,030.3,025.0,000.0,038.9,031.4,29.4,0000.0,0003.29,0001.98,0001.72
2023-06-16 21:15:00,SystemResetWarning,0833.5,5.00,000.00,030.2,025.5,000.0,038.8,031.3,29.6,0000.0,0003.32,0002.01,0001.76
2023-06-16 21:16:00,SystemResetWarning,0833.4,5.00,000.00,030.1,026.0,000.0,038.8,031.3,29.6,0000.0,0003.19,0002.04,0001.80
2023-06-16 21:17:00,SystemResetWarning,0833.4,5.00,000.00,030.1,026.4,000.0,038.8,031.4,29.8,0000.0,0002.84,0002.08,0001.83
2023-06-16 21:18:00,SystemResetWarning,0833.4,4.99,000.00,030.1,026.8,000.0,038.8,031.4,29.9,0000.0,0002.92,0002.11,0001.85
2023-06-16 21:19:00,SystemResetWarning,0833.4,5.01,000.00,030.1,027.1,000.0,038.7,031.4,29.5,0000.0,0002.97,0002.13,0001.87
2023-06-16 21:20:00,SystemResetWarning,0833.5,4.99,000.00,030.0,027.4,000.0,038.7,031.5,29.3,0000.0,0002.98,0002.15,0001.89
2023-06-16 21:21:00,SystemResetWarning,0833.5,4.99,000.00,030.0,027.6,000.0,038.7,031.5,29.7,0000.0,0002.99,0002.18,0001.91
2023-06-16 21:22:00,SystemResetWarning,0833.5,5.00,000.00,030.0,027.8,000.0,038.7,031.5,29.5,0000.0,0002.88,0002.18,0001.92
2023-06-16 21:23:00,SystemResetWarning,0833.5,4.99,000.00,030.0,027.9,000.0,038.7,031.5,29.5,0000.0,0002.81,0002.16,0001.92
2023-06-16 21:24:00,SystemResetWarning,0833.5,5.00,000.00,030.0,028.1,000.0,038.7,031.5,29.4,0000.0,0002.81,0002.16,0001.91
2023-06-16 21:25:00,SystemResetWarning,0833.6,5.00,000.00,030.0,028.1,000.0,038.7,031.6,29.1,0000.0,0002.79,0002.14,0001.89
2023-06-16 21:26:00,SystemResetWarning,0833.5,5.00,000.00,030.0,028.2,000.0,038.7,031.6,29.7,0000.0,0002.72,0002.09,0001.85
2023-06-16 21:27:00,SystemResetWarning,0833.5,5.00,000.00,030.1,028.3,000.0,038.7,031.6,29.9,0000.0,0002.75,0002.09,0001.82
2023-06-16 21:28:00,SystemResetWarning,0833.5,5.01,000.00,030.1,028.3,000.0,038.7,031.6,29.5,0000.0,0002.73,0002.07,0001.80
2023-06-16 21:29:00,SystemResetWarning,0833.4,5.00,000.00,030.1,028.3,000.0,038.7,031.6,29.6,0000.0,0002.81,0002.07,0001.79
2023-06-16 21:30:00,SystemResetWarning,0833.4,5.00,000.00,030.1,028.4,000.0,038.7,031.6,29.6,0000.0,0002.83,0002.06,0001.77
2023-06-16 21:31:00,SystemResetWarning,0833.4,5.00,000.00,030.1,028.4,000.0,038.7,031.6,28.9,0000.0,0002.83,0002.04,0001.75
2023-06-16 21:32:00,SystemResetWarning,0833.4,5.00,000.00,030.1,028.4,000.0,038.7,031.6,28.7,0000.0,0002.84,0002.02,0001.72
2023-06-16 21:33:00,SystemResetWarning,0833.4,5.01,000.00,030.1,028.5,000.0,038.7,031.7,28.2,0000.0,0002.84,0002.00,0001.70
2023-06-16 21:34:00,SystemResetWarning,0833.4,5.00,000.00,030.1,028.5,000.0,038.7,031.7,28.8,0000.0,0002.85,0002.00,0001.69
2023-06-16 21:35:00,SystemResetWarning,0833.4,5.00,000.00,030.1,028.5,000.0,038.7,031.7,28.7,0000.0,0002.84,0001.99,0001.69
2023-06-16 21:36:00,SystemResetWarning,0833.4,5.00,000.00,030.1,028.6,000.0,038.7,031.7,28.2,0000.0,0002.78,0001.95,0001.66
2023-06-16 21:37:00,SystemResetWarning,0833.4,5.00,000.00,030.2,028.6,000.0,038.7,031.7,28.5,0000.0,0002.78,0001.93,0001.64
2023-06-16 21:38:00,SystemResetWarning,0833.4,5.00,000.00,030.2,028.6,000.0,038.7,031.7,28.2,0000.0,0002.75,0001.86,0001.61
2023-06-16 21:39:00,SystemResetWarning,0833.4,5.00,000.00,030.2,028.6,000.0,038.7,031.8,28.4,0000.0,0002.63,0001.80,0001.58
2023-06-16 21:40:00,SystemResetWarning,0833.4,5.00,000.00,030.2,028.6,000.0,038.8,031.7,27.5,0000.0,0002.48,0001.74,0001.54
2023-06-16 21:41:00,SystemResetWarning,0833.5,5.00,000.00,030.2,028.7,000.0,038.8,031.7,27.6,0000.0,0002.35,0001.70,0001.52
2023-06-16 21:42:00,SystemResetWarning,0833.4,5.00,000.00,030.2,028.7,000.0,038.8,031.8,27.9,0000.0,0002.27,0001.66,0001.50
2023-06-16 21:43:00,SystemResetWarning,0833.4,5.00,000.00,030.2,028.7,000.0,038.8,031.8,28.1,0000.0,0002.19,0001.63,0001.48
2023-06-16 21:44:00,SystemResetWarning,0833.4,5.00,000.00,030.3,028.7,000.0,038.8,031.8,28.0,0000.0,0002.22,0001.64,0001.47
2023-06-16 21:45:00,SystemResetWarning,0833.4,5.01,000.00,030.3,028.7,000.0,038.8,031.8,28.0,0000.0,0002.22,0001.62,0001.46
2023-06-16 21:46:00,SystemResetWarning,0833.5,4.99,000.00,030.3,028.8,000.0,038.8,031.9,28.1,0000.0,0002.18,0001.59,0001.42
2023-06-16 21:47:00,SystemResetWarning,0833.6,4.99,000.00,030.3,028.8,000.0,038.8,031.9,28.0,0000.0,0002.13,0001.57,0001.40
2023-06-16 21:48:00,SystemResetWarning,0833.6,5.00,000.00,030.3,028.8,000.0,038.8,031.9,28.1,0000.0,0002.13,0001.56,0001.39
2023-06-16 21:49:00,SystemResetWarning,0833.6,4.99,000.00,030.3,028.8,000.0,038.9,031.9,28.5,0000.0,0002.04,0001.55,0001.37
2023-06-16 21:50:00,SystemResetWarning,0833.5,5.00,000.00,030.3,028.8,000.0,038.9,031.9,28.8,0000.0,0002.09,0001.57,0001.37
2023-06-16 21:51:00,SystemResetWarning,0833.5,5.00,000.00,030.4,028.8,000.0,038.9,031.9,29.2,0000.0,0002.20,0001.59,0001.37
2023-06-16 21:52:00,SystemResetWarning,0833.6,5.00,000.00,030.4,028.8,000.0,038.9,031.9,29.5,0000.0,0002.28,0001.61,0001.38
2023-06-16 21:53:00,SystemResetWarning,0833.6,5.01,000.00,030.4,028.9,000.0,038.9,031.9,29.5,0000.0,0002.96,0001.64,0001.40
2023-06-16 21:54:00,SystemResetWarning,0833.6,5.00,000.00,030.4,028.9,000.0,038.9,031.9,29.3,0000.0,0003.58,0001.67,0001.42
2023-06-16 21:55:00,SystemResetWarning,0833.6,5.00,000.00,030.4,028.9,000.0,038.9,031.9,29.1,0000.0,0003.58,0001.68,0001.44
2023-06-16 21:56:00,SystemResetWarning,0833.5,5.00,000.00,030.4,028.9,000.0,039.0,031.9,28.9,0000.0,0003.59,0001.71,0001.47
2023-06-16 21:57:00,SystemResetWarning,0833.6,4.98,000.00,030.4,027.5,000.0,038.9,031.9,28.7,0000.0,0003.73,0001.77,0001.50
2023-06-16 21:58:00,SystemResetWarning,0833.5,5.00,000.00,030.4,025.4,000.0,038.8,031.8,28.8,0000.0,0004.06,0001.85,0001.55
2023-06-16 21:59:00,SystemResetWarning,0833.4,5.00,000.00,030.3,024.8,000.0,038.8,031.6,28.6,0000.0,0004.11,0001.88,0001.57
